Regional Weather Roundup
Issued by NWS

Home | Current Version | Previous Version | Graphics & Text | Print | Product List | Glossary On
Versions: 1 2 3 4 5 6 7 8 9 10 11 12 13 14 15 16 17 18 19 20 21 22 23 24 25 26 27 28 29 30 31 32 33 34 35 36 37 38 39 40 41 42 43 44 45 46 47 48 49 50
000
ASUS43 KOAX 192102
RWRNE

WEATHER ROUNDUP FOR NEBRASKA
NATIONAL WEATHER SERVICE OMAHA NE
400 PM CDT THU OCT 19 2017

NOTES: SATELLITE DATA IS BEING USED TO AUGMENT CLOUD COVER ABOVE
       12000 FEET.
       "FAIR" INDICATES FEW OR NO CLOUDS BELOW 12,000 FEET WITH NO
       SIGNIFICANT WEATHER AND/OR OBSTRUCTIONS TO VISIBILITY.


NEZ001>004-019>022-054>056-192200-
NEBRASKA PANHANDLE

CITY           SKY/WX    TMP DP  RH WIND       PRES   REMARKS
SCOTTSBLUFF    SUNNY     81  29  15 SE5       29.86F
ALLIANCE       SUNNY     82  31  15 S13       29.87F
CHADRON        SUNNY     86  15   7 S17       29.80F
GORDON         FAIR      84  21  10 SW12      29.85F
KIMBALL        SUNNY     78  26  15 S15       29.93F
SIDNEY         SUNNY     84  27  12 S22G31    29.90F
$$

NEZ057>060-069>072-079>082-192200-
SOUTHWEST NEBRASKA

CITY           SKY/WX    TMP DP  RH WIND       PRES   REMARKS
NORTH PLATTE   SUNNY     79  47  32 S20       29.92F
IMPERIAL       SUNNY     84  36  18 S21       29.91F
LEXINGTON      SUNNY     79  48  32 S12       29.94F
MCCOOK         SUNNY     83  46  27 S18G29    29.92F
OGALLALA       SUNNY     83  39  20 S17G25    29.89F
$$

NEZ005>010-023>029-035>040-094-192200-
NORTH CENTRAL NEBRASKA

CITY           SKY/WX    TMP DP  RH WIND       PRES   REMARKS
VALENTINE      SUNNY     87  35  15 S22G29    29.83F
AINSWORTH      SUNNY     79  42  27 S20G26    29.88F
BROKEN BOW     SUNNY     79  47  32 S16       29.93F
O`NEILL        SUNNY     77  46  34 S14G20    29.91F
ORD            SUNNY     79  44  28 S13       29.92F
THEDFORD       SUNNY     82  40  22 S15G23    29.91F
$$

NEZ041-046>049-061>064-073>077-083>087-192200-
SOUTH CENTRAL NEBRASKA

CITY           SKY/WX    TMP DP  RH WIND       PRES   REMARKS
GRAND ISLAND   SUNNY     80  49  33 SE13      29.95F
AURORA         SUNNY     82  44  27 S14       29.96F
HASTINGS       SUNNY     81  48  31 S15G22    29.96F
HEBRON         SUNNY     82  48  29 S15       29.98S
HOLDREGE       SUNNY     80  49  34 S17G23    29.95F
KEARNEY        SUNNY     82  49  31 S17G24    29.95F
YORK           SUNNY     81  46  30 S12       29.96F
$$

NEZ011>018-030>034-042>045-192200-
NORTHEAST NEBRASKA

CITY           SKY/WX    TMP DP  RH WIND       PRES   REMARKS
NORFOLK        SUNNY     78  47  33 S14       29.93F
ALBION         SUNNY     80  46  31 S16G22    29.95S
BLAIR          SUNNY     78  53  43 SE12      29.98F
COLUMBUS       SUNNY     81  50  33 SE12      29.96F
FREMONT        SUNNY     77  52  41 SE9       29.98F
TEKAMAH        SUNNY     78  51  38 SE13G18   29.97F
WAYNE          SUNNY     75  48  37 S16       29.95S
$$

NEZ050>053-065>068-078-088>093-192200-
SOUTHEAST NEBRASKA

CITY           SKY/WX    TMP DP  RH WIND       PRES   REMARKS
LINCOLN        SUNNY     80  54  40 S13       29.98F
OMAHA EPPLEY   SUNNY     78  52  40 S13       29.98F
BEATRICE       SUNNY     80  55  42 S12       29.99S
FALLS CITY     SUNNY     79  51  37 S12G21    30.01F
NEBRASKA CITY  SUNNY     79  56  44 S12       30.00F
PLATTSMOUTH    SUNNY     78  55  44 SE9       30.00F
$$

NEZ044-045-051>053-067-192200-
OMAHA AREA

CITY           SKY/WX    TMP DP  RH WIND       PRES   REMARKS
OMAHA EPPLEY   SUNNY     78  52  40 S13       29.98F
BLAIR          SUNNY     78  53  43 SE12      29.98F
FREMONT        SUNNY     77  52  41 SE9       29.98F
MILLARD        SUNNY     78  55  44 S8G18     29.98F
OFFUTT AFB     SUNNY     77  53  42 S13       29.98F
PLATTSMOUTH    SUNNY     78  55  44 SE9       30.00F
WAHOO          FAIR      80  48  32 S13G18    29.97F
$$



USA.gov is the U.S. government's official web portal to all federal, state and local government web resources and services.